Location: Newark
(31.5350°N, 35.0986°E)
Time: 08:00:31
(UTC+00:00)

N. Korean satellite - Visible Passes

Search period start: 26 August 2019 00:00
Search period end: 05 September 2019 00:00
Orbit: 457 x 507 km, 97.2° (Epoch: 25 August)

Date Brightness Start Highest point End Pass type
(mag) Time Alt. Az. Time Alt. Az. Time Alt. Az.
27 Aug 9.8 02:41:18 10° ENE 02:43:12 14° E 02:45:05 10° SE visible
31 Aug 10.1 02:34:55 10° ENE 02:35:51 11° E 02:36:47 10° ESE visible
03 Sep 9.5 02:51:13 10° NE 02:53:48 19° E 02:56:20 10° SE visible
